Location: Albertville
(45.6697°N, 6.3871°E)
Time: 14:28:03
(UTC+00:00)

Daily predictions for brighter satellites

Satellite Brightness Start Highest point End
(mag) Time Altitude Azimuth Time Altitude Azimuth Time Altitude Azimuth
Cosmos 1833 Rocket 4.4 19:53:50 10° WSW 19:59:02 39° NW 20:04:18 10° NNE
USA 245 4.4 19:57:26 10° SE 20:00:19 28° ENE 20:03:49 10° N
Tiangong -1.3 19:58:58 10° WSW 20:01:54 36° S 20:04:51 10° ESE
Cosmos 1140 Rocket 4.4 19:58:36 10° SW 20:03:42 56° WNW 20:08:49 10° NNE
Terra 2.7 19:59:50 10° SE 20:04:04 35° ENE 20:08:20 10° N
Cosmos 1707 3.1 20:03:37 10° SSE 20:06:59 38° E 20:10:23 10° NNE
Cosmos 2219 Rocket 4.5 20:05:01 10° NNE 20:07:12 12° NE 20:09:22 10° ENE
Cosmos 1515 Rocket 3.6 20:03:34 10° S 20:07:50 63° E 20:12:08 10° NNE
SL-4 R/B 2.4 20:04:37 10° WSW 20:08:20 64° NNW 20:12:19 10° ENE
Cosmos 1633 Rocket 3.8 20:06:14 10° NNW 20:10:31 53° W 20:14:46 10° S
Cosmos 1190 Rocket 4.0 20:07:12 10° S 20:12:27 67° ESE 20:17:43 10° NNE
Okean O Rocket 3.0 20:11:25 10° SSW 20:15:29 37° W 20:19:34 10° NNW
SeaSat 1 2.5 20:12:33 10° SE 20:17:26 72° ENE 20:22:21 10° NNW
Cosmos 1766 3.8 20:14:21 10° NNW 20:18:04 56° W 20:21:44 10° S
EXPRESS MD2 2.3 20:16:35 10° SW 20:19:47 57° SSE 20:22:04 10° ENE
Cosmos 1470 Rocket 4.0 20:18:13 10° NNW 20:22:33 64° W 20:26:49 10° S
CZ-4 R/B 4.4 20:21:33 10° WSW 20:22:48 11° W 20:24:03 10° WNW
USA 234 3.2 20:16:38 10° NE 20:23:11 76° SE 20:29:43 10° SW
Cosmos 1869 Rocket 4.2 20:21:05 10° N 20:25:19 42° ENE 20:29:11 12° SE
IRS-1A Rocket 4.2 20:23:56 10° SSE 20:29:27 87° ENE 20:34:59 10° NNW
Cosmos 2360 Rocket 3.7 20:26:27 10° N 20:31:12 26° NE 20:35:54 10° ESE
MOS 1 Rocket 4.0 20:26:39 11° SE 20:31:42 53° ENE 20:36:54 10° N
Meteor 2-12 Rocket 4.5 20:25:34 10° S 20:31:43 89° ESE 20:37:55 10° N
Cosmos 2333 Rocket 3.7 20:31:08 10° N 20:35:58 27° NE 20:40:47 10° ESE
Cosmos 841 Rocket 4.2 20:31:23 10° N 20:36:25 43° ENE 20:40:43 14° SE
Atlas Centaur 2 4.0 20:31:20 10° SW 20:37:55 27° S 20:43:36 13° SE
ERS-1 Rocket 3.0 20:33:12 10° SSE 20:38:14 85° ENE 20:43:17 10° NNW
Cosmos 1441 Rocket 3.0 20:35:17 10° N 20:38:54 71° E 20:41:54 14° SSE
SL-16 R/B 2.6 20:33:38 10° NNW 20:39:13 53° ENE 20:43:56 14° SE
Resurs 01 Rocket 4.2 20:37:31 10° SW 20:40:23 17° W 20:43:17 10° NW
Cosmos 1763 Rocket 3.9 20:35:22 10° NNW 20:40:33 60° WSW 20:45:37 10° S
Cosmos 2369 4.3 20:35:11 10° NW 20:40:46 53° WSW 20:46:17 10° S
In-Cosmos 22 4.3 20:36:41 10° S 20:42:15 62° E 20:47:44 10° NNE
RESURS DK-1 3.6 20:38:52 10° N 20:42:30 30° NE 20:45:34 13° ESE
Spot 2 Rocket 3.5 20:38:13 12° SSE 20:42:49 71° ENE 20:47:54 10° N
Cosmos 2082 Rocket 3.0 20:37:17 10° SW 20:42:54 57° WNW 20:48:31 10° NNE
SL-14 R/B 4.4 20:42:15 16° SE 20:44:22 25° E 20:47:31 10° NNE
Cosmos 1933 Rocket 3.8 20:42:27 10° NNW 20:46:52 69° W 20:51:16 10° S
Cosmos 1470 3.2 20:43:50 10° NNW 20:47:27 54° W 20:51:03 10° S
SPOT 5 3.5 20:43:27 10° S 20:47:35 46° W 20:51:48 10° NNW
Cosmos 1417 Rocket 4.5 20:41:33 10° N 20:47:47 78° E 20:53:27 12° SSE
Cosmos 1300 3.7 20:47:50 10° NNE 20:51:00 29° ENE 20:52:53 18° ESE
Cosmos 1908 3.3 20:51:05 10° NNW 20:54:40 65° W 20:57:41 14° S
Cosmos 1346 Rocket 3.8 20:56:04 10° N 20:59:33 31° ENE 21:01:35 19° ESE
ATLAS 2AS CENTAUR R/B 3.4 20:55:20 10° NNW 21:01:56 46° NE 21:07:52 12° ESE
Meteor 1-22 Rocket 4.2 20:58:09 10° N 21:03:48 83° E 21:08:27 17° SSE
Ariane Rocket 3.1 21:03:07 15° S 21:07:21 75° WSW 21:12:28 10° NNW
Meteor 1-4 Rocket 4.1 21:09:49 15° E 21:09:50 15° E 21:11:35 10° NE
Cosmos 1758 3.5 21:06:56 10° N 21:10:47 56° E 21:12:54 24° SSE
Cosmos 1356 Rocket 3.8 21:09:23 22° SSE 21:11:47 47° E 21:15:50 10° NNE
SPOT 3 Rocket 3.7 21:12:14 16° S 21:16:18 69° WSW 21:21:29 10° NNW
Cosmos 1850 Rocket 4.1 21:13:25 15° S 21:17:43 58° ESE 21:22:50 10° NNE
Cosmos 1707 Rocket 3.7 21:16:10 22° SSE 21:18:53 56° E 21:23:14 10° NNE
SL-27 R/B 2.8 21:19:33 29° E 21:19:33 29° E 21:21:58 10° NE
ARIANE 5 R/B 4.1 21:17:31 16° ESE 21:19:49 25° ENE 21:23:20 10° N
Cosmos 1980 Rocket 4.3 21:19:20 10° WNW 21:23:07 19° W 21:26:52 10° SW
S3M 4.3 21:17:30 10° NNW 21:23:51 69° W 21:29:06 15° S
Cosmos 2322 Rocket 2.3 21:18:09 10° NNW 21:23:51 73° ENE 21:27:28 23° SE
Spot 1 4.1 21:20:22 10° NNE 21:24:52 81° ESE 21:28:33 17° SSW
Meteor 1-21 4.4 21:21:07 19° S 21:25:12 61° E 21:30:56 10° NNE
Cosmos 1655 Rocket 4.0 21:22:56 14° S 21:28:39 88° E 21:35:05 10° N
SJ 16-02 2.1 21:28:54 27° SE 21:30:13 34° ESE 21:34:08 10° NE
Landsat 5 3.3 21:28:16 10° NNE 21:32:16 88° WNW 21:35:02 20° SSW
Cosmos 2278 4.3 21:27:07 10° NW 21:32:37 50° WSW 21:36:25 20° S
Cosmos 1741 Rocket 3.9 21:31:50 15° SSW 21:36:14 79° ESE 21:41:34 10° NNE
USA 281 3.6 21:32:45 20° SE 21:37:19 57° ENE 21:43:44 10° NNW
Tiangong -0.1 21:36:02 10° WSW 21:37:28 16° SW 21:37:28 16° SW
Cosmos 1400 Rocket 3.7 21:35:14 11° SSW 21:38:46 44° WNW 21:42:30 10° N
MetOp-A 4.1 21:37:25 24° S 21:40:33 78° WSW 21:45:51 10° NNW
Okean 3 3.4 21:39:26 31° SSE 21:41:13 64° E 21:45:21 10° NNE
Terra 3.4 21:37:48 11° SSW 21:41:41 28° W 21:45:45 10° NW
COSMOS 2428 4.4 21:37:07 10° N 21:41:43 24° NE 21:46:15 10° ESE
Cosmos 1733 Rocket 3.0 21:37:38 10° N 21:42:04 83° W 21:44:16 29° S
GP-B 4.1 21:39:26 10° NNE 21:43:23 31° E 21:44:46 26° ESE
Cosmos 968 Rocket 3.4 21:41:01 22° S 21:44:17 68° ESE 21:49:26 10° NNE
Cosmos 1814 Rocket 4.3 21:42:00 10° NNW 21:47:15 61° ENE 21:50:00 28° SE
SL-4 R/B 3.6 21:43:57 10° WNW 21:47:35 35° N 21:51:25 10° ENE
Cosmos 2228 Rocket 3.5 21:44:42 18° SSW 21:47:58 64° W 21:52:31 10° N
Cosmos 1315 Rocket 3.2 21:51:04 37° SE 21:52:04 46° E 21:55:54 10° NNE
Cosmos 2219 Rocket 2.7 21:46:59 10° NNW 21:52:32 52° ENE 21:55:47 24° SE
Cosmos 1908 Rocket 4.2 21:49:14 10° N 21:53:23 42° ENE 21:54:53 30° ESE
ATLAS CENTAUR R/B 0.8 21:52:13 30° SSW 21:53:50 84° SE 21:57:26 10° NE
Meteor 2-10 Rocket 4.4 21:51:42 10° NNW 21:57:03 46° W 22:00:34 20° SSW
Cosmos 1953 2.5 21:56:08 10° N 21:59:54 52° ENE 22:00:51 40° SE
H-2A R/B 3.5 21:59:30 26° ESE 22:01:06 36° ENE 22:05:03 10° N
Cosmos 1455 2.4 21:59:42 10° N 22:03:06 47° ENE 22:03:41 42° ESE
Cosmos 1242 Rocket 3.6 22:04:20 23° ENE 22:04:20 23° ENE 22:05:59 10° NE
USA 234 4.3 21:59:47 10° NE 22:05:59 47° NNW 22:12:08 10° W
Okean 1-7 2.9 22:04:58 39° S 22:06:29 74° E 22:10:49 10° NNE
BREEZE-M DEB (TANK) 2.4 22:06:39 10° WNW 22:08:53 59° SSW 22:09:06 57° S
CZ-2C R/B 3.5 22:05:29 10° NNE 22:09:55 79° ESE 22:11:36 37° S
CZ-4C R/B 3.9 22:11:44 12° E 22:11:44 12° E 22:12:58 10° E
ALOS 2 3.9 22:11:53 23° ESE 22:13:33 30° ENE 22:17:23 10° N
Cosmos 2360 Rocket 2.4 22:10:01 10° NNW 22:15:35 59° WSW 22:18:06 32° S
RESURS DK-1 3.7 22:16:40 10° NW 22:20:08 27° WSW 22:21:10 24° SW
Cosmos 2333 Rocket 2.5 22:14:59 10° NNW 22:20:38 59° WSW 22:23:08 33° S
SL-16 R/B 3.7 22:18:21 10° NW 22:22:56 26° WSW 22:25:47 17° SW
H-2A R/B 4.2 22:21:28 10° ENE 22:23:13 12° E 22:23:29 12° E
Atlas Centaur 2 4.0 22:20:01 10° WSW 22:25:49 23° SSW 22:25:49 23° SSW
EXPRESS MD2 4.1 22:25:23 10° WNW 22:27:22 27° N 22:27:54 24° NNE
OPS 8737 4.0 22:25:52 10° NW 22:28:45 80° NNE 22:28:45 80° NNE
SL-08 R/B 4.4 22:25:47 30° S 22:29:02 86° W 22:35:10 10° N
BREEZE-M DEB (TANK) 4.2 22:16:38 10° W 22:32:10 66° N 22:36:11 10° ENE
Cosmos 1703 Rocket 3.5 22:32:44 44° SSW 22:34:07 87° W 22:38:37 10° N
Cosmos 2242 Rocket 4.3 22:36:20 35° ESE 22:37:13 39° E 22:41:27 10° NNE
DNEPR-1 R/B 4.2 22:30:58 10° NW 22:37:39 83° WSW 22:39:56 38° SSE
Meteor 1-4 Rocket 4.0 22:41:49 21° W 22:42:28 23° WNW 22:44:57 10° NNW
Cosmos 839 Rocket 4.2 22:38:28 10° NW 22:45:12 63° WSW 22:47:42 36° S
Cosmos 2322 3.7 22:41:26 10° NNW 22:47:09 78° ENE 22:49:30 37° SE
Cosmos 2237 Rocket 3.7 22:43:12 10° N 22:48:10 30° NE 22:52:21 13° ESE
BlueWalker 3 3.5 22:50:03 23° E 22:50:03 23° E 22:51:49 10° ENE
ATLAS 2AS CENTAUR R/B 3.1 22:46:27 10° NW 22:52:51 46° WSW 22:55:16 33° SSW
Cosmos 2227 Rocket 4.1 22:53:35 14° ESE 22:54:33 15° E 22:57:34 10° ENE
Cosmos 405 Rocket 4.4 22:52:10 10° NNE 22:55:09 22° ENE 22:55:58 20° E
ARIANE 5 R/B 3.6 22:54:59 30° SW 22:56:02 34° W 23:00:01 10° NNW
SL-24 R/B - RUBIN 2 4.4 22:52:30 10° NW 22:59:05 70° WSW 23:01:28 39° SSE
Meteor 2-5 Rocket 4.2 23:03:32 36° SE 23:05:33 52° E 23:11:14 10° NNE
Cosmos 1703 3.4 23:06:48 52° E 23:06:50 52° E 23:10:26 10° NNE
Cosmos 2322 Rocket 4.0 23:03:31 10° WNW 23:07:14 18° W 23:09:15 15° SW
Cosmos 1570 Rocket 4.1 23:02:26 10° NNW 23:07:46 68° WSW 23:09:22 44° S
Cosmos 1745 Rocket 4.1 23:05:11 33° SSW 23:08:14 72° W 23:14:36 10° N
PSLV R/B 3.7 23:04:21 10° NNE 23:08:30 52° E 23:08:58 49° SE
SJ 16-02 3.2 23:05:36 13° WSW 23:08:37 25° WNW 23:12:14 10° N
COSMOS 2455 3.0 23:08:58 40° SSE 23:10:49 56° ESE 23:16:43 10° NE
Cosmos 2297 Rocket 2.8 23:13:09 35° SE 23:14:27 40° ESE 23:19:41 10° NE
Nadezhda 1 Rocket 4.4 23:13:00 10° NNW 23:19:05 52° W 23:21:42 32° SSW
Cosmos 2181 Rocket 4.3 23:13:21 10° N 23:19:28 56° ENE 23:22:13 32° SE
Cosmos 1408 3.0 23:22:14 42° NW 23:22:14 42° NW 23:24:43 10° N
USA 281 4.2 23:19:37 25° SW 23:22:05 31° WSW 23:27:51 10° NW
COSMOS 2428 2.7 23:20:48 10° NNW 23:26:27 66° WSW 23:28:13 43° S
SL-4 R/B 3.0 23:22:58 10° WNW 23:26:57 48° NNE 23:31:08 10° E
GEOS 3 Rocket 3.6 23:25:04 10° NE 23:30:11 61° SE 23:31:28 46° S
ATLAS CENTAUR R/B 4.0 23:30:10 10° WNW 23:32:02 14° NW 23:33:56 10° N
CZ-3 Stage 3 4.4 23:17:01 10° W 23:35:16 28° SW 23:37:06 27° SSW
H-2A R/B 4.1 23:35:29 22° WSW 23:36:06 23° W 23:39:34 10° NW
Cosmos 2219 Rocket 3.4 23:31:31 10° NW 23:36:09 26° WSW 23:37:28 24° SW
Cosmos 1892 3.4 23:38:13 37° E 23:38:13 37° E 23:41:23 10° NNE
Cosmos 2208 Rocket 4.4 23:33:26 10° NNW 23:38:26 48° WSW 23:39:34 41° SW
Cosmos 371 Rocket 3.2 23:38:59 50° SSW 23:40:15 84° WNW 23:45:07 10° NNE
Cosmos 158 Rocket 4.4 23:35:48 10° NNW 23:40:56 50° WSW 23:42:07 41° SW
Cosmos 773 Rocket 3.9 23:43:12 10° NNW 23:48:22 79° WSW 23:49:51 47° S
Cosmos 2151 Rocket 3.5 23:44:43 10° N 23:49:09 76° E 23:50:03 54° SSE
ALOS 2 3.8 23:49:16 28° WSW 23:49:51 29° W 23:53:41 10° NW
Cosmos 2263 Rocket 4.1 23:50:27 14° ESE 23:52:13 16° E 23:55:34 10° ENE
Cosmos 1503 Rocket 4.0 23:51:55 44° SSW 23:53:41 87° WNW 23:59:02 10° NNE
